Zurück zum Katalog

STARLINK-37576

AktivKommunikationSSO
NORAD 69047·PAYLOAD·🇺🇸 United States

Gestartet May 6, 2026 von Vandenberg Space Force Base

Loading…

Nächste Überflüge (nächste 24 Stunden)

TLE

AktuellSource: CelesTrak SupGP

Epoche: Sep 14, 2026, 21:19 UTC

1 69047C 26101Y   26257.88868056  .00049833  00000+0  15482-2 0  2572
2 69047  97.2849 111.5369 0001552  93.4053 290.4238 15.33387564    14

Verfolge STARLINK-37576 in Echtzeit mit AllMySat

Download on the App Store